Weather History for KDSV - October, 2011

Change the Weather History Date:

Monday, October 31, 2011

  Actual Average Record
Temperature  
Mean Temperature 39 °F -  
Max Temperature 50 °F 54 °F 78 °F (1950)
Min Temperature 28 °F 32 °F 21 °F (1975)
Degree Days  
Heating Degree Days 26    
Moisture  
Dew Point 31 °F    
Average Humidity 71    
Maximum Humidity 92    
Minimum Humidity 52    
Precipitation  
Precipitation 0.00 in - - ()
Sea Level Pressure  
Sea Level Pressure 30.28 in    
Wind  
Wind Speed 6 mph (SE)    
Max Wind Speed 13 mph    
Max Gust Speed 22 mph    
Visibility 10 miles    
Events      
Averages and records for this station are not official NWS values.
T = Trace of Precipitation, MM = Missing Value Source: NWS Daily Summary

Daily Weather History Graph

Daily Weather History Graph

Search for Another Location

Airport or City:

Trip Planner

Search our weather history database for the weather conditions in past years. The results will help you decide how hot, cold, wet, or windy it might be!

Date:

Astronomy

Oct. 31, 2011 Rise Set
Actual Time 7:42 AM EDT 6:05 PM EDT
Civil Twilight 7:13 AM EDT 6:34 PM EDT
Nautical Twilight 6:40 AM EDT 7:07 PM EDT
Astronomical Twilight 6:07 AM EDT 7:40 PM EDT
Moon 12:51 PM EDT (10/31) 10:36 PM EDT (10/31)
Length of Visible Light 11h 20m
Length of Day
10h 22m
Waxing Crescent, 29% of the Moon is Illuminated
Oct 31
Waxing Crescent
Nov 2
First Quarter
Nov 10
Full
Nov 18
Last Quarter
Nov 25
New

Hourly Weather History & Observations

Time (EDT) Temp. Windchill Dew Point Humidity Pressure Visibility Wind Dir Wind Speed Gust Speed Precip Events Conditions
12:54 AM 30.0 °F 25.2 °F 28.0 °F 92% 30.33 in 10.0 mi ESE 4.6 mph - N/A   Clear
1:54 AM 30.9 °F 27.5 °F 28.0 °F 89% 30.33 in 10.0 mi SSE 3.5 mph - N/A   Clear
2:54 AM 30.0 °F 26.5 °F 27.0 °F 88% 30.34 in 10.0 mi ESE 3.5 mph - N/A   Scattered Clouds
3:54 AM 30.9 °F 24.3 °F 28.0 °F 89% 30.32 in 10.0 mi SE 6.9 mph - N/A   Mostly Cloudy
4:54 AM 28.9 °F 25.2 °F 27.0 °F 92% 30.32 in 10.0 mi East 3.5 mph - N/A   Clear
5:54 AM 30.0 °F 25.2 °F 26.1 °F 85% 30.31 in 10.0 mi ESE 4.6 mph - N/A   Clear
7:54 AM 32.0 °F 25.6 °F 28.0 °F 85% 30.30 in 10.0 mi SSE 6.9 mph - N/A   Clear
8:54 AM 34.0 °F 28.0 °F 28.9 °F 82% 30.30 in 10.0 mi SSE 6.9 mph - N/A   Clear
9:54 AM 37.0 °F 31.0 °F 30.9 °F 79% 30.29 in 10.0 mi SSE 8.1 mph - N/A   Clear
10:54 AM 42.1 °F 37.7 °F 32.0 °F 67% 30.28 in 10.0 mi SSE 6.9 mph - N/A   Clear
11:54 AM 46.0 °F 42.5 °F 34.0 °F 63% 30.27 in 10.0 mi SE 6.9 mph - N/A   Clear
12:54 PM 48.0 °F - 32.0 °F 54% 30.24 in 10.0 mi South 8.1 mph - N/A   Clear
1:54 PM 48.9 °F - 33.1 °F 54% 30.22 in 10.0 mi SSE 11.5 mph - N/A   Clear
2:54 PM 48.9 °F - 33.1 °F 54% 30.21 in 10.0 mi SSE 10.4 mph - N/A   Clear
3:54 PM 48.9 °F - 33.1 °F 54% 30.21 in 10.0 mi SSE 10.4 mph - N/A   Partly Cloudy
4:54 PM 50.0 °F - 33.1 °F 52% 30.21 in 10.0 mi SE 10.4 mph - N/A   Scattered Clouds
6:54 PM 48.0 °F - 33.1 °F 56% 30.25 in 10.0 mi SE 9.2 mph - N/A   Overcast
7:54 PM 48.0 °F - 33.1 °F 56% 30.27 in 10.0 mi SSE 12.7 mph 21.9 mph N/A   Overcast
8:54 PM 46.0 °F 41.4 °F 35.1 °F 66% 30.29 in 10.0 mi SSE 9.2 mph - N/A   Overcast
10:54 PM 44.1 °F 40.1 °F 34.0 °F 68% 30.30 in 10.0 mi SE 6.9 mph - N/A   Overcast